Location: *
(50.2903°S, 172.5375°W)
Time: 07:55:41
(UTC+00:00)

ISS - Visible Passes

Search period start: 26 February 2021 00:00
Search period end: 08 March 2021 00:00
Orbit: 417 x 422 km, 51.6° (Epoch: 27 February)

Date Brightness Start Highest point End Pass type
(mag) Time Alt. Az. Time Alt. Az. Time Alt. Az.
26 Feb -3.5 07:00:36 10° WSW 07:04:03 72° S 07:07:31 10° E visible
26 Feb -3.3 08:37:30 10° WSW 08:40:51 48° NNW 08:40:56 48° NNW visible
27 Feb -3.6 07:50:00 10° WSW 07:53:27 66° NNW 07:55:11 26° NE visible
27 Feb -1.0 09:27:28 10° W 09:28:08 13° WNW 09:28:08 13° WNW visible
28 Feb -3.7 07:02:31 10° WSW 07:06:00 84° NNW 07:09:27 10° ENE visible
28 Feb -2.1 08:39:38 10° W 08:42:25 24° NW 08:42:25 24° NW visible
01 Mar -2.6 07:51:59 10° W 07:55:10 34° NNW 07:56:44 22° NNE visible
02 Mar -3.0 07:04:25 10° WSW 07:07:46 48° NNW 07:11:05 10° NE visible
02 Mar -1.0 08:42:45 10° WNW 08:43:56 11° NW 08:44:03 11° NW visible
03 Mar -1.4 07:54:21 10° W 07:56:40 17° NW 07:58:28 12° N visible
04 Mar -1.8 07:06:29 10° W 07:09:20 24° NW 07:12:12 10° NNE visible
06 Mar -0.9 07:09:31 10° WNW 07:10:42 11° NW 07:11:52 10° NNW visible
